Tracking 19636 objects as of 25-May-2019
HD Live streaming from Space Station
objects crossing your sky now

SL-3 R/B

Track SL-3 R/B now!
10-day predictions
SL-3 R/B is classified as:


NORAD ID: 16111
Int'l Code: 1985-090B
Perigee: 386.8 km
Apogee: 401.9 km
Inclination: 97.4 °
Period: 92.3 minutes
Semi major axis: 6765 km
RCS: 5.946 m2 (large)
Launch date: October 3, 1985
Source: Commonwealth of Independent States (former USSR) (CIS)
Launch site: TYURATAM MISSILE AND SPACE COMPLEX (TTMTR)

Note: This is a ROCKET BODY
aabbcc
Your satellite tracking list
Your tracking list is empty




NASA's NSSDC Master Catalog

Two Line Element Set (TLE):
1 16111U 85090B   19144.92282677 +.00003012 +00000-0 +38368-4 0  9992
2 16111 097.4402 291.8911 0011169 284.5204 075.4814 15.60159334854229
Source of the keplerian elements: AFSPC